(242840) = 2006 DY106

Discovered at Kitt Peak on 2006-02-25 by Spacewatch.

Orbit

Orbit type: Main Belt

Note: WebGL enabled browser required.

epoch2024-03-31.0
epoch JD2460400.5
perihelion date2021-08-07.25668
perihelion JD2459433.75668
argument of perihelion (°)97.20850
ascending node (°)184.05738
inclination (°)4.96203
eccentricity0.1617497
perihelion distance (AU)1.9797463
Tisserand w.r.t. Jupiter3.5
ΔV w.r.t. Earth (km/sec)8.9
semimajor axis (AU)2.3617602
mean anomaly (°)262.51935
mean daily motion (°/day)0.27155020
aphelion distance (AU)2.744
period (years)3.63
P-vector [x]0.19509901
P-vector [y]-0.93053451
P-vector [z]-0.30990626
Q-vector [x]0.98076446
Q-vector [y]0.18312810
Q-vector [z]0.06756610
absolute magnitude17.01
phase slope0.15
uncertainty0
referenceMPEC 2024-E73
observations used387
oppositions14
arc length (days)7558
first opposition used2003
last opposition used2024
residual rms (arc-secs)0.72
perturbers coarse indicatorM-v
perturbers precise indicator003Ek
first observation date used2003-06-26.0
last observation date used2024-03-05.0
computer nameMPCLINUX
JD of orbit computation2456966.911571
perihelion JD uncertainty (days)5.5682E-05
argument of perihelion uncertainty (°)4.7572E-05
ascending node uncertainty (°)4.3916E-05
inclination uncertainty (°)4.7780E-06
eccentricity uncertainty 3.5706E-08
perihelion distance uncertainty (AU)8.1295E-08
Minimum Orbit Intersection Distances (in AU)
for orbit epoch: 2460400.5, reference: E2024-FB1
Mercury1.52814
Venus1.25922
Earth0.97073
Mars0.53977
Jupiter2.39176
Saturn6.31376
Uranus15.8727
Neptune27.2288

Observations

396 total observations over interval: 2003 06 26.33039 – 2024 03 05.282307
These data are available for download (format description).

Date (UT) J2000 RA J2000 Dec Magn Location Ref
2003 06 26.33039 20 00 48.10 -10 58 19.4 19.3   704 – Lincoln Laboratory ETS, New Mexico MPS 168279
2003 06 26.34053 20 00 47.79 -10 58 19.7 19.5   704 – Lincoln Laboratory ETS, New Mexico MPS 168279
2003 06 26.35047 20 00 47.41 -10 58 19.3 19.1   704 – Lincoln Laboratory ETS, New Mexico MPS 168279
2003 07 25.26458 19 37 43.97 -12 15 03.5 18.7   704 – Lincoln Laboratory ETS, New Mexico MPS 168279
2003 07 25.27467 19 37 43.45 -12 15 06.1 19.4   704 – Lincoln Laboratory ETS, New Mexico MPS 168279
2003 07 25.28498 19 37 42.87 -12 15 08.8 19.3   704 – Lincoln Laboratory ETS, New Mexico MPS 168279
2003 07 25.29521 19 37 42.43 -12 15 11.7 19.4   704 – Lincoln Laboratory ETS, New Mexico MPS 168279
2003 07 25.30533 19 37 41.80 -12 15 14.8 19.6   704 – Lincoln Laboratory ETS, New Mexico MPS 168279
2006 02 25.33834 12 06 40.85 -02 32 17.0 20.8 V 691 – Steward Observatory, Kitt Peak-Spacewatch MPS 166282
2006 02 25.35565 12 06 40.18 -02 32 10.9 20.5 V 691 – Steward Observatory, Kitt Peak-Spacewatch MPS 166282
2006 02 25.36407 12 06 39.81 -02 32 08.2 20.5 V G96 – Mt. Lemmon Survey MPS 168279
2006 02 25.36980 12 06 39.60 -02 32 05.9 20.5 V G96 – Mt. Lemmon Survey MPS 168279
2006 02 25.37297 12 06 39.52 -02 32 05.2 20.7 V 691 – Steward Observatory, Kitt Peak-Spacewatch MPS 166282
2006 02 25.37564 12 06 39.34 -02 32 04.2 20.5 V G96 – Mt. Lemmon Survey MPS 168279
2006 02 27.38277 12 05 22.70 -02 20 06.4 20.3 V G96 – Mt. Lemmon Survey MPS 166282
2006 02 27.38860 12 05 22.48 -02 20 04.0 20.6 V G96 – Mt. Lemmon Survey MPS 166282
2006 02 27.39433 12 05 22.27 -02 20 02.0 20.3 V G96 – Mt. Lemmon Survey MPS 166282
2006 02 27.40015 12 05 22.02 -02 20 00.0 20.4 V G96 – Mt. Lemmon Survey MPS 166282
2006 03 04.32744 12 01 52.35 -01 47 36.9   691 – Steward Observatory, Kitt Peak-Spacewatch MPS 168279
2006 03 04.34484 12 01 51.51 -01 47 29.7   691 – Steward Observatory, Kitt Peak-Spacewatch MPS 168279
2006 03 04.36222 12 01 50.69 -01 47 22.2   691 – Steward Observatory, Kitt Peak-Spacewatch MPS 168279
2006 03 24.24927 11 44 38.70 +00 50 59.8 19.4 R 699 – Lowell Observatory-LONEOS MPS 168279
2006 03 24.27113 11 44 37.38 +00 51 10.5   699 – Lowell Observatory-LONEOS MPS 168279
2006 03 24.29305 11 44 36.15 +00 51 21.4   699 – Lowell Observatory-LONEOS MPS 168279
2006 03 24.31495 11 44 34.97 +00 51 32.1   699 – Lowell Observatory-LONEOS MPS 168279
2006 03 25.30682 11 43 41.62 +00 59 49.9 19.9 V G96 – Mt. Lemmon Survey MPS 168279
2006 03 25.31216 11 43 41.34 +00 59 52.6 19.6 V G96 – Mt. Lemmon Survey MPS 168279
2006 03 25.31738 11 43 41.01 +00 59 55.2 20.0 V G96 – Mt. Lemmon Survey MPS 168279
2006 03 25.32288 11 43 40.72 +00 59 58.1 19.5 V G96 – Mt. Lemmon Survey MPS 168279
2006 04 21.16704 11 25 20.49 +04 06 06.1 20.8 V G96 – Mt. Lemmon Survey MPS 169195
2006 04 21.17494 11 25 20.28 +04 06 08.1 20.4 V G96 – Mt. Lemmon Survey MPS 169195
2006 04 21.18259 11 25 20.10 +04 06 10.4 20.3 V G96 – Mt. Lemmon Survey MPS 169195
2006 04 21.19041 11 25 19.92 +04 06 12.6 20.6 V G96 – Mt. Lemmon Survey MPS 169195
2006 05 25.21974 11 29 00.52 +04 48 02.5 20.7 V G96 – Mt. Lemmon Survey MPS 172070
2006 05 25.22535 11 29 00.74 +04 48 01.9 22.0 V G96 – Mt. Lemmon Survey MPS 172070
2006 05 25.23096 11 29 00.92 +04 48 01.3 21.2 V G96 – Mt. Lemmon Survey MPS 172070
2006 05 25.23655 11 29 01.06 +04 48 00.8 21.1 V G96 – Mt. Lemmon Survey MPS 172070
2007 09 11.34536 00 36 41.07 +04 33 59.0 19.8 V 691 – Steward Observatory, Kitt Peak-Spacewatch MPS 215165
2007 09 11.36294 00 36 40.26 +04 33 51.3 19.8 V 691 – Steward Observatory, Kitt Peak-Spacewatch MPS 215165
2007 09 11.38052 00 36 39.46 +04 33 43.3 20.1 V 691 – Steward Observatory, Kitt Peak-Spacewatch MPS 215165
2007 09 12.06547 00 36 09.44 +04 28 31.8 19.8   A77 – Observatoire Chante-Perdrix, Dauban MPS 215165
2007 09 12.06912 00 36 09.27 +04 28 30.5 19.7   A77 – Observatoire Chante-Perdrix, Dauban MPS 215165
2007 09 12.07277 00 36 08.98 +04 28 28.4 19.5   A77 – Observatoire Chante-Perdrix, Dauban MPS 215165
2007 09 12.34008 00 35 57.24 +04 26 27.5 19.6 V 691 – Steward Observatory, Kitt Peak-Spacewatch MPS 215165
2007 09 12.36456 00 35 56.03 +04 26 17.1 19.5 V 691 – Steward Observatory, Kitt Peak-Spacewatch MPS 215165
2007 09 12.39250 00 35 54.80 +04 26 03.4 19.7 V 691 – Steward Observatory, Kitt Peak-Spacewatch MPS 215165
2007 09 13.23652 00 35 17.15 +04 19 33.7 19.8   704 – Lincoln Laboratory ETS, New Mexico MPS 216259
2007 09 13.25970 00 35 15.93 +04 19 23.9 20.2   704 – Lincoln Laboratory ETS, New Mexico MPS 216259
2007 09 13.28287 00 35 14.83 +04 19 12.1 20.0   704 – Lincoln Laboratory ETS, New Mexico MPS 216259
2007 09 21.28150 00 28 43.42 +03 13 46.6 19.8   704 – Lincoln Laboratory ETS, New Mexico MPS 217764
2007 09 21.29366 00 28 42.80 +03 13 41.8 19.8   704 – Lincoln Laboratory ETS, New Mexico MPS 217764
2007 09 21.30581 00 28 42.14 +03 13 35.5 19.5   704 – Lincoln Laboratory ETS, New Mexico MPS 217764
2007 09 21.31801 00 28 41.54 +03 13 29.0 19.9   704 – Lincoln Laboratory ETS, New Mexico MPS 217764
2007 09 21.33022 00 28 40.88 +03 13 23.8 20.1   704 – Lincoln Laboratory ETS, New Mexico MPS 217764
2007 10 06.20442 00 15 47.76 +01 06 39.0 19.4   704 – Lincoln Laboratory ETS, New Mexico MPS 218697
2007 10 06.21527 00 15 47.16 +01 06 34.2 20.1   704 – Lincoln Laboratory ETS, New Mexico MPS 218697
2007 10 06.22622 00 15 46.58 +01 06 27.0 20.1   704 – Lincoln Laboratory ETS, New Mexico MPS 218697
2007 10 06.23705 00 15 46.05 +01 06 22.9 19.8   704 – Lincoln Laboratory ETS, New Mexico MPS 218697
2007 10 06.24789 00 15 45.49 +01 06 17.6 20.0   704 – Lincoln Laboratory ETS, New Mexico MPS 218697
2007 10 08.26712 00 14 06.57 +00 49 59.6 19.6 V G96 – Mt. Lemmon Survey MPS 218697
2007 10 08.27395 00 14 06.25 +00 49 56.2 19.7 V G96 – Mt. Lemmon Survey MPS 218697
2007 10 08.28735 00 14 05.56 +00 49 50.1 19.7 V G96 – Mt. Lemmon Survey MPS 218698
2007 10 14.20037 00 09 37.32 +00 05 05.7 19.5 C 704 – Lincoln Laboratory ETS, New Mexico MPS 287398
2007 10 14.22269 00 09 36.32 +00 04 55.3 19.7 C 704 – Lincoln Laboratory ETS, New Mexico MPS 287398
2007 10 14.23375 00 09 35.94 +00 04 51.4 19.8 C 704 – Lincoln Laboratory ETS, New Mexico MPS 287398
2007 10 14.24481 00 09 35.44 +00 04 47.6 19.5 C 704 – Lincoln Laboratory ETS, New Mexico MPS 287398
2010 05 03.36144 15 57 04.48 -13 22 29.7 19.6 V 691 – Steward Observatory, Kitt Peak-Spacewatch MPS 324889
2010 05 03.37916 15 57 03.69 -13 22 23.2 19.8 V 691 – Steward Observatory, Kitt Peak-Spacewatch MPS 324889
2010 05 03.40035 15 57 02.72 -13 22 15.6 19.6 V 691 – Steward Observatory, Kitt Peak-Spacewatch MPS 324889
2010 05 04.37866 15 56 20.54 -13 16 19.7 19.0 V 703 – Catalina Sky Survey MPS 324889
2010 05 04.38478 15 56 20.18 -13 16 17.5 19.1 V 703 – Catalina Sky Survey MPS 324889
2010 05 04.39088 15 56 19.96 -13 16 16.1 19.3 V 703 – Catalina Sky Survey MPS 324889
2010 05 04.39701 15 56 19.68 -13 16 12.5 18.9 V 703 – Catalina Sky Survey MPS 324889
2010 05 10.488341 15 51 30.604 -12 39 11.44 19.10 i F51 – Pan-STARRS 1, Haleakala MPS 338926
2010 05 10.499287 15 51 30.015 -12 39 07.46 19.05 i F51 – Pan-STARRS 1, Haleakala MPS 338926
2010 05 14.29825 15 48 12.47 -12 16 29.4 18.8   704 – Lincoln Laboratory ETS, New Mexico MPS 327348
2010 05 14.30911 15 48 11.86 -12 16 27.5 19.0   704 – Lincoln Laboratory ETS, New Mexico MPS 327348
2010 05 14.31919 15 48 11.27 -12 16 23.5 19.1   704 – Lincoln Laboratory ETS, New Mexico MPS 327348
2010 05 14.33916 15 48 10.17 -12 16 18.6 19.4   704 – Lincoln Laboratory ETS, New Mexico MPS 327348
2010 05 19.356457 15 43 38.206 -11 47 40.17 18.91 i F51 – Pan-STARRS 1, Haleakala MPS 338926
2010 05 19.369125 15 43 37.471 -11 47 36.03 19.00 i F51 – Pan-STARRS 1, Haleakala MPS 338926
2010 05 20.27170 15 42 47.89 -11 42 42.5 19.3 V 691 – Steward Observatory, Kitt Peak-Spacewatch MPS 327348
2010 05 20.28946 15 42 46.86 -11 42 36.8 19.3 V 691 – Steward Observatory, Kitt Peak-Spacewatch MPS 327348
2010 05 20.30721 15 42 45.85 -11 42 31.2 19.3 V 691 – Steward Observatory, Kitt Peak-Spacewatch MPS 327348
2010 05 31.22411 15 33 08.53 -10 50 54.7 19.0 V 703 – Catalina Sky Survey MPS 329175
2010 05 31.23103 15 33 08.13 -10 50 52.9 19.1 V 703 – Catalina Sky Survey MPS 329175
